Regional Weather Roundup
Issued by NWS

Home | Current Version | Previous Version | Graphics & Text | Print | Product List | Glossary On
Versions: 1 2 3 4 5 6 7 8 9 10 11 12 13 14 15 16 17 18 19 20 21 22 23 24 25 26 27 28 29 30 31 32 33 34 35 36 37 38 39 40 41 42 43 44 45 46 47 48 49 50
000
ASUS43 KFSD 012010
RWRSD

WEATHER ROUNDUP FOR SOUTH DAKOTA
NATIONAL WEATHER SERVICE SIOUX FALLS SD
300 PM CDT TUE SEP 01 2015

NOTE: "FAIR" INDICATES FEW OR NO CLOUDS BELOW 12,000 FEET WITH NO
SIGNIFICANT WEATHER AND/OR OBSTRUCTIONS TO VISIBILITY.


SDZ001>005-009-010-012>017-012100-
NORTHWEST AND NORTH CENTRAL SOUTH DAKOTA

CITY           SKY/WX    TMP DP  RH WIND       PRES   REMARKS
BUFFALO          N/A     84  58  40 VRB3      29.78F
FAITH            N/A     86  56  35 S8        29.81
MOBRIDGE       SUNNY     89  70  53 SE10      29.77F
$$

SDZ012>016-024>037-041>051-057-063-072>074-012100-
SOUTHWEST AND SOUTH CENTRAL SOUTH DAKOTA

CITY           SKY/WX    TMP DP  RH WIND       PRES   REMARKS
RAPID CTY ARPT SUNNY     84  59  42 E7        29.86S
PIERRE         SUNNY     91  60  35 S18       29.77S
CUSTER         SUNNY     82  30  15 W14G24    30.02S
ELLSWORTH AFB  SUNNY     83  55  37 NE5       29.86S
PHILIP         SUNNY     92  57  30 S8        29.78F
PINE RIDGE     SUNNY     92  40  16 W8G17     29.88S
WINNER         FAIR      91  55  29 S17G28    29.83F
$$

SDZ004>011-016>023-039-040-012100-
NORTHEAST SOUTH DAKOTA

CITY           SKY/WX    TMP DP  RH WIND       PRES   REMARKS
ABERDEEN       MOSUNNY   84  71  65 SE8       29.81F
WATERTOWN      CLOUDY    81  69  67 S7        29.85F
BROOKINGS      CLOUDY    77  70  78 SE8       29.88F
SISSETON         N/A     83  71  67 S7        29.83F
$$

SDZ017-020-022-023-036>040-048>070-012100-
SOUTHEAST SOUTH DAKOTA

CITY           SKY/WX    TMP DP  RH WIND       PRES   REMARKS
SIOUX FALLS    CLOUDY    79  70  74 SE13      29.88S
HURON          CLOUDY    77  70  79 S10       29.84R
CHAMBERLAIN    MOSUNNY   83  67  58 SE12      29.83F
MITCHELL       LGT RAIN  77  69  76 N10G28    29.84F
YANKTON        CLOUDY    81  70  69 SE12      29.84F
$$

ABBREVIATIONS USED IN REMARKS
   TC - TEMPERATURE IN CELSIUS
  WCI - WIND CHILL INDEX
   HX - HEAT INDEX
  VSB - VISIBILITY



USA.gov is the U.S. government's official web portal to all federal, state and local government web resources and services.